GW0392 Weather Reports


Display with metric or nautical units.
time (UTC)temp
F
wind
direction
speed
MPH
gust
MPH
rain 1hr
in
rain 24hr
in
rain mn
in
humidity
%
barometer
mb
20260510214352 81 227 0.0 1.0 0.00 0.00 0.00 41 1015.5
20260510213849 81 238 0.0 1.0 0.00 0.00 0.00 41 1015.5
20260510213344 81 241 0.0 1.0 0.00 0.00 0.00 40 1015.4
20260510212841 81 243 1.0 1.0 0.00 0.00 0.00 41 1015.5
20260510212338 81 216 0.0 0.0 0.00 0.00 0.00 48 1015.7
20260510211835 81 228 0.0 2.0 0.00 0.00 0.00 41 1015.5
20260510211331 82 230 0.0 1.0 0.00 0.00 0.00 41 1015.5
20260510210827 81 227 0.0 0.0 0.00 0.00 0.00 40 1015.7
20260510210322 82 231 0.0 0.0 0.00 0.00 0.00 42 1015.5
20260510205816 82 229 0.0 1.0 0.00 0.00 0.00 42 1015.6
20260510205311 82 227 1.0 2.0 0.00 0.00 0.00 39 1015.4
20260510204808 81 241 0.0 0.0 0.00 0.00 0.00 41 1015.7
20260510204304 81 221 1.0 2.0 0.00 0.00 0.00 40 1015.6
20260510203801 81 229 0.0 1.0 0.00 0.00 0.00 43 1015.6
20260510203259 81 118 3.0 5.0 0.00 0.00 0.00 42 1015.8
20260510202758 81 231 1.0 1.0 0.00 0.00 0.00 43 1015.6
20260510202254 81 219 1.0 2.0 0.00 0.00 0.00 40 1015.8
20260510201752 81 219 1.0 2.0 0.00 0.00 0.00 41 1015.7
20260510201248 81 231 0.0 0.0 0.00 0.00 0.00 41 1016.0
20260510200745 81 216 1.0 2.0 0.00 0.00 0.00 41 1015.8
20260510200243 81 238 1.0 1.0 0.00 0.00 0.00 41 1016.2
20260510195739 82 219 0.0 5.0 0.00 0.00 0.00 43 1016.2
20260510195236 82 216 2.0 3.0 0.00 0.00 0.00 41 1015.9
20260510194735 82 215 1.0 2.0 0.00 0.00 0.00 40 1016.2
20260510194232 82 226 0.0 2.0 0.00 0.00 0.00 43 1016.2
20260510193728 82 221 1.0 2.0 0.00 0.00 0.00 41 1016.1
20260510193223 82 199 2.0 3.0 0.00 0.00 0.00 40 1016.3
20260510192718 82 227 0.0 3.0 0.00 0.00 0.00 42 1016.1
20260510192214 82 225 0.0 2.0 0.00 0.00 0.00 40 1016.2
20260510191710 82 227 1.0 3.0 0.00 0.00 0.00 40 1016.4
20260510191207 82 233 0.0 2.0 0.00 0.00 0.00 40 1016.4
20260510190704 82 228 1.0 2.0 0.00 0.00 0.00 39 1016.4
20260510190201 82 216 0.0 2.0 0.00 0.00 0.00 40 1016.5
20260510185658 82 235 0.0 0.0 0.00 0.00 0.00 43 1016.4
20260510185156 82 226 2.0 2.0 0.00 0.00 0.00 40 1016.5
20260510184652 82 217 0.0 1.0 0.00 0.00 0.00 44 1016.6
20260510184148 82 228 1.0 2.0 0.00 0.00 0.00 47 1016.6
20260510183645 82 275 1.0 2.0 0.00 0.00 0.00 43 1016.6
20260510183139 81 253 1.0 2.0 0.00 0.00 0.00 45 1016.5
20260510182636 80 238 0.0 1.0 0.00 0.00 0.00 45 1016.8
20260510182132 81 246 1.0 1.0 0.00 0.00 0.00 43 1016.7
20260510181629 81 239 0.0 2.0 0.00 0.00 0.00 41 1016.7
20260510181125 81 225 0.0 2.0 0.00 0.00 0.00 47 1016.7
20260510180621 81 231 0.0 2.0 0.00 0.00 0.00 41 1016.7
20260510180119 82 226 1.0 2.0 0.00 0.00 0.00 40 1016.6
20260510175615 82 222 0.0 2.0 0.00 0.00 0.00 43 1016.7
20260510175111 82 228 0.0 2.0 0.00 0.00 0.00 44 1016.5
20260510174609 81 233 0.0 1.0 0.00 0.00 0.00 44 1016.7
20260510174106 81 229 0.0 3.0 0.00 0.00 0.00 41 1016.8
20260510173601 81 231 0.0 1.0 0.00 0.00 0.00 43 1017.1
20260510173058 80 236 0.0 3.0 0.00 0.00 0.00 40 1017.0
20260510172554 80 217 1.0 2.0 0.00 0.00 0.00 37 1017.2
20260510172050 80 210 1.0 3.0 0.00 0.00 0.00 38 1017.2
20260510171547 80 184 2.0 2.0 0.00 0.00 0.00 42 1017.1
20260510171044 79 228 0.0 1.0 0.00 0.00 0.00 43 1017.3
20260510170540 79 237 0.0 1.0 0.00 0.00 0.00 44 1017.3
20260510170037 79 241 1.0 2.0 0.00 0.00 0.00 43 1017.2
20260510165533 79 233 0.0 1.0 0.00 0.00 0.00 47 1017.4
20260510165029 79 199 1.0 3.0 0.00 0.00 0.00 47 1017.4
20260510164526 79 237 1.0 1.0 0.00 0.00 0.00 48 1017.3
20260510164022 79 214 0.0 3.0 0.00 0.00 0.00 50 1017.4
20260510163513 79 181 1.0 2.0 0.00 0.00 0.00 48 1017.5
20260510163009 78 222 0.0 3.0 0.00 0.00 0.00 48 1017.7
20260510162504 78 229 0.0 1.0 0.00 0.00 0.00 49 1017.5
20260510162001 78 222 0.0 1.0 0.00 0.00 0.00 51 1017.4
20260510161457 77 237 0.0 2.0 0.00 0.00 0.00 53 1017.4
20260510160954 77 226 1.0 2.0 0.00 0.00 0.00 53 1017.4
20260510160451 77 205 0.0 1.0 0.00 0.00 0.00 58 1017.3
20260510155949 76 221 0.0 1.0 0.00 0.00 0.00 64 1017.7
20260510155447 76 202 2.0 5.0 0.00 0.00 0.00 65 1017.2
20260510154943 76 216 0.0 2.0 0.00 0.00 0.00 64 1017.4
20260510154439 75 222 0.0 3.0 0.00 0.00 0.00 69 1017.3
20260510153938 75 214 1.0 1.0 0.00 0.00 0.00 74 1017.4
20260510153435 74 208 1.0 5.0 0.00 0.00 0.00 74 1017.2
20260510152931 74 222 0.0 3.0 0.00 0.00 0.00 77 1017.4
20260510152429 73 193 1.0 5.0 0.00 0.00 0.00 76 1017.5
20260510151925 73 142 2.0 5.0 0.00 0.00 0.00 78 1017.4
20260510151422 73 220 0.0 1.0 0.00 0.00 0.00 77 1017.1
20260510150918 72 218 1.0 2.0 0.00 0.00 0.00 79 1017.4
20260510150414 72 204 1.0 5.0 0.00 0.00 0.00 80 1017.5
20260510145911 72 222 1.0 3.0 0.00 0.00 0.00 79 1017.4
20260510145407 72 203 3.0 5.0 0.00 0.00 0.00 79 1017.7
20260510144903 72 210 0.0 1.0 0.00 0.00 0.00 78 1017.5
20260510144400 72 242 0.0 1.0 0.00 0.00 0.00 81 1017.4
20260510143855 71 228 0.0 1.0 0.00 0.00 0.00 81 1017.4
20260510143351 70 228 0.0 0.0 0.00 0.00 0.00 83 1017.8
20260510142848 69 215 1.0 2.0 0.00 0.00 0.00 84 1017.7
20260510142345 69 225 0.0 1.0 0.00 0.00 0.00 84 1017.5
20260510141842 69 223 0.0 1.0 0.00 0.00 0.00 85 1017.4
20260510141339 69 211 1.0 2.0 0.00 0.00 0.00 84 1017.3
20260510140836 69 212 1.0 1.0 0.00 0.00 0.00 83 1017.8
20260510140332 68 229 0.0 0.0 0.00 0.00 0.00 86 1017.5
20260510135825 67 219 0.0 1.0 0.00 0.00 0.00 87 1017.7
20260510135321 67 229 0.0 1.0 0.00 0.00 0.00 86 1017.7
20260510134819 66 223 0.0 1.0 0.00 0.00 0.00 88 1017.3
20260510134316 66 225 0.0 3.0 0.00 0.00 0.00 89 1017.7
20260510133812 65 212 0.0 1.0 0.00 0.00 0.00 91 1017.4
20260510133308 64 223 0.0 1.0 0.00 0.00 0.00 92 1017.5
20260510132803 63 223 0.0 0.0 0.00 0.00 0.00 96 1017.7
20260510132305 61 224 0.0 1.0 0.00 0.00 0.00 97 1017.7
20260510131758 61 218 1.0 2.0 0.00 0.00 0.00 98 1017.3
20260510131256 60 224 0.0 0.0 0.00 0.00 0.00 99 1017.3
20260510130752 60 199 1.0 2.0 0.00 0.00 0.00 99 1017.3
20260510130250 60 227 0.0 0.0 0.00 0.00 0.00 99 1017.4
20260510125746 60 219 0.0 0.0 0.00 0.00 0.00 99 1017.3
20260510125242 59 216 0.0 0.0 0.00 0.00 0.00 99 1017.2
20260510124739 59 221 0.0 1.0 0.00 0.00 0.00 99 1017.3
20260510124237 59 226 0.0 1.0 0.00 0.00 0.00 99 1017.5
20260510123731 58 224 0.0 1.0 0.00 0.00 0.00 99 1017.4
20260510123228 58 223 0.0 0.0 0.00 0.00 0.00 99 1017.4
20260510122724 58 247 1.0 1.0 0.00 0.00 0.00 99 1017.0
20260510122221 58 225 0.0 1.0 0.00 0.00 0.00 99 1017.3
20260510121717 58 210 1.0 2.0 0.00 0.00 0.00 99 1017.3
20260510121215 58 204 2.0 2.0 0.00 0.00 0.00 99 1017.0
20260510120712 58 218 0.0 3.0 0.00 0.00 0.00 99 1017.0
20260510120208 58 219 1.0 2.0 0.00 0.00 0.00 99 1017.0
20260510115704 57 221 0.0 3.0 0.00 0.00 0.00 99 1017.0
20260510115202 57 222 1.0 1.0 0.00 0.00 0.00 99 1017.1
20260510114657 57 217 0.0 0.0 0.00 0.00 0.00 99 1017.0
20260510114154 57 225 0.0 0.0 0.00 0.00 0.00 99 1016.9
20260510113649 57 198 0.0 0.0 0.00 0.00 0.00 99 1016.7
20260510113147 56 228 0.0 0.0 0.00 0.00 0.00 99 1016.8
20260510112643 56 227 0.0 0.0 0.00 0.00 0.00 99 1016.6
20260510112140 56 224 0.0 1.0 0.00 0.00 0.00 99 1016.6
20260510111636 56 226 0.0 0.0 0.00 0.00 0.00 99 1016.6
20260510111132 56 213 0.0 1.0 0.00 0.00 0.00 99 1016.3
20260510110628 56 223 0.0 1.0 0.00 0.00 0.00 99 1016.4
20260510110125 56 224 0.0 0.0 0.00 0.00 0.00 99 1016.3
20260510105620 56 225 0.0 0.0 0.00 0.00 0.00 99 1015.9
20260510105115 56 224 0.0 0.0 0.00 0.00 0.00 99 1015.9
20260510104612 56 227 0.0 0.0 0.00 0.00 0.00 99 1015.9
20260510104109 56 223 0.0 0.0 0.00 0.00 0.00 99 1015.9
20260510103606 57 225 0.0 0.0 0.00 0.00 0.00 99 1015.7
20260510103102 57 227 0.0 0.0 0.00 0.00 0.00 99 1015.5
20260510102557 57 213 1.0 2.0 0.00 0.00 0.00 99 1015.8
20260510102053 57 221 1.0 1.0 0.00 0.00 0.00 99 1015.5
20260510101551 57 223 0.0 0.0 0.00 0.00 0.00 99 1015.6
20260510101050 57 224 0.0 0.0 0.00 0.00 0.00 99 1015.7
20260510100545 57 226 0.0 0.0 0.00 0.00 0.00 99 1015.7
20260510100043 57 226 0.0 0.0 0.00 0.00 0.00 99 1015.7
20260510095539 57 226 0.0 0.0 0.00 0.00 0.00 99 1015.6
20260510095038 57 226 0.0 0.0 0.00 0.00 0.00 99 1015.6
20260510094533 58 228 0.0 0.0 0.00 0.00 0.00 99 1015.6
20260510094028 58 232 0.0 0.0 0.00 0.00 0.00 99 1015.5
20260510093524 58 229 0.0 0.0 0.00 0.00 0.00 99 1015.7
20260510093022 58 237 0.0 0.0 0.00 0.00 0.00 99 1015.3
20260510092519 58 233 0.0 0.0 0.00 0.00 0.00 99 1015.2
20260510092018 58 233 0.0 0.0 0.00 0.00 0.00 99 1015.1
20260510091515 58 231 0.0 0.0 0.00 0.00 0.00 99 1014.9
20260510091011 57 222 0.0 0.0 0.00 0.00 0.00 99 1015.1
20260510090509 57 222 0.0 0.0 0.00 0.00 0.00 99 1015.0
20260510090004 57 225 0.0 0.0 0.00 0.00 0.00 99 1015.0
20260510085459 57 233 0.0 0.0 0.00 0.00 0.00 99 1014.9
20260510084955 57 233 0.0 0.0 0.00 0.00 0.00 99 1015.1
20260510084452 57 233 0.0 0.0 0.00 0.00 0.00 99 1014.8
20260510083949 57 233 0.0 0.0 0.00 0.00 0.00 99 1014.9
20260510083445 57 233 0.0 0.0 0.00 0.00 0.00 99 1014.8
20260510082940 57 233 0.0 0.0 0.00 0.00 0.00 99 1014.6
20260510082439 57 233 0.0 0.0 0.00 0.00 0.00 99 1014.7
20260510081938 57 233 0.0 0.0 0.00 0.00 0.00 99 1014.3
20260510081434 57 233 0.0 0.0 0.00 0.00 0.00 99 1014.5
20260510080930 57 233 0.0 0.0 0.00 0.00 0.00 99 1014.6
20260510080429 57 233 0.0 0.0 0.00 0.00 0.00 99 1014.4
20260510075926 57 233 0.0 0.0 0.00 0.00 0.00 99 1014.3
20260510075424 57 233 0.0 0.0 0.00 0.00 0.00 99 1014.1
20260510074920 57 233 0.0 0.0 0.00 0.00 0.00 99 1014.3
20260510074418 57 232 0.0 0.0 0.00 0.00 0.00 99 1014.3
20260510073914 57 233 0.0 0.0 0.00 0.00 0.00 99 1014.4
20260510073409 57 230 0.0 0.0 0.00 0.00 0.00 99 1014.2
20260510072906 57 226 0.0 0.0 0.00 0.00 0.00 99 1014.2
20260510072403 57 233 0.0 0.0 0.00 0.00 0.00 99 1014.2
20260510071858 57 233 0.0 0.0 0.00 0.00 0.00 99 1014.1
20260510071355 57 233 0.0 0.0 0.00 0.00 0.00 99 1014.3
20260510070854 57 233 0.0 0.0 0.00 0.00 0.00 99 1014.0
20260510070350 57 233 0.0 0.0 0.00 0.00 0.00 99 1014.2
20260510065850 57 233 0.0 0.0 0.00 0.00 0.00 99 1014.0
20260510065347 57 231 0.0 0.0 0.00 0.00 0.00 99 1014.2
20260510064844 57 229 0.0 0.0 0.00 0.00 0.00 99 1014.1
20260510064342 57 233 0.0 0.0 0.00 0.00 0.00 99 1013.9
20260510063838 57 235 0.0 0.0 0.00 0.00 0.00 99 1013.9
20260510063334 57 233 0.0 0.0 0.00 0.00 0.00 99 1014.2
20260510062831 57 233 0.0 0.0 0.00 0.00 0.00 99 1014.0
20260510062327 57 233 0.0 0.0 0.00 0.00 0.00 99 1013.9
20260510061822 57 233 0.0 0.0 0.00 0.00 0.00 99 1014.1
20260510061319 57 229 0.0 0.0 0.00 0.00 0.00 99 1014.2
20260510060815 57 233 0.0 0.0 0.00 0.00 0.00 99 1014.0
20260510060313 57 231 0.0 0.0 0.00 0.00 0.00 99 1014.0
20260510055809 57 227 0.0 0.0 0.00 0.00 0.00 99 1014.0
20260510055308 57 229 0.0 0.0 0.00 0.00 0.00 99 1014.3
20260510054807 57 228 0.0 0.0 0.00 0.00 0.00 99 1014.1
20260510054303 57 231 0.0 0.0 0.00 0.00 0.00 99 1014.4
20260510053758 57 229 0.0 0.0 0.00 0.00 0.00 99 1014.5
20260510053254 58 229 0.0 0.0 0.00 0.00 0.00 99 1014.4
20260510052750 58 229 0.0 0.0 0.00 0.00 0.00 98 1014.4
20260510052246 58 229 0.0 0.0 0.00 0.00 0.00 98 1014.2
20260510051742 58 229 0.0 0.0 0.00 0.00 0.00 98 1014.2
20260510051239 58 229 0.0 0.0 0.00 0.00 0.00 98 1014.5
20260510050736 58 229 0.0 0.0 0.00 0.00 0.00 98 1014.5
20260510050233 58 229 0.0 0.0 0.00 0.00 0.00 98 1014.7
20260510045730 58 229 0.0 0.0 0.00 0.00 0.00 98 1014.4
20260510045226 58 229 0.0 0.0 0.00 0.00 0.00 98 1014.5
20260510044723 59 229 0.0 0.0 0.00 0.00 0.00 98 1014.7
20260510044221 59 227 0.0 0.0 0.00 0.00 0.00 98 1014.6
20260510043715 59 227 0.0 0.0 0.00 0.00 0.00 97 1014.5
20260510043213 59 227 0.0 0.0 0.00 0.00 0.00 97 1014.5
20260510042710 59 227 0.0 0.0 0.00 0.00 0.00 97 1014.5
20260510042206 59 226 0.0 0.0 0.00 0.00 0.00 97 1014.5
20260510041703 59 227 0.0 0.0 0.00 0.00 0.00 97 1014.5
20260510041201 59 232 0.0 0.0 0.00 0.00 0.00 96 1014.4
20260510040657 59 226 0.0 0.0 0.00 0.00 0.00 96 1014.3
20260510040154 59 229 0.0 0.0 0.00 0.00 0.00 96 1014.5
20260510035649 59 216 0.0 0.0 0.00 0.00 0.00 95 1014.3
20260510035145 60 229 0.0 0.0 0.00 0.00 0.00 95 1014.2
20260510034642 60 231 0.0 0.0 0.00 0.00 0.00 95 1014.4
20260510034139 60 227 0.0 0.0 0.00 0.00 0.00 94 1014.1
20260510033635 60 232 0.0 0.0 0.00 0.00 0.00 94 1014.3
20260510033133 60 229 0.0 0.0 0.00 0.00 0.00 94 1014.2
20260510032629 60 227 0.0 0.0 0.00 0.00 0.00 94 1014.3
20260510032125 61 231 0.0 0.0 0.00 0.00 0.00 93 1014.3
20260510031620 61 231 0.0 0.0 0.00 0.00 0.00 93 1014.0
20260510031117 61 231 0.0 0.0 0.00 0.00 0.00 93 1014.3
20260510030611 61 231 0.0 0.0 0.00 0.00 0.00 92 1014.2
20260510030109 61 231 0.0 0.0 0.00 0.00 0.00 92 1014.1
20260510025606 61 228 0.0 0.0 0.00 0.00 0.00 92 1014.1
20260510025104 62 231 0.0 0.0 0.00 0.00 0.00 91 1014.1
20260510024600 62 227 0.0 0.0 0.00 0.00 0.00 91 1014.0
20260510024056 62 231 0.0 0.0 0.00 0.00 0.00 91 1013.9
20260510023553 62 237 0.0 0.0 0.00 0.00 0.00 91 1013.7
20260510023050 62 231 0.0 0.0 0.00 0.00 0.00 90 1013.8
20260510022549 63 232 0.0 0.0 0.00 0.00 0.00 90 1013.7
20260510022044 63 232 0.0 0.0 0.00 0.00 0.00 89 1013.5
20260510021541 63 232 0.0 0.0 0.00 0.00 0.00 89 1013.7
20260510021038 64 227 0.0 0.0 0.00 0.00 0.00 88 1013.7
20260510020532 64 229 0.0 0.0 0.00 0.00 0.00 87 1013.6
20260510020028 64 229 0.0 0.0 0.00 0.00 0.00 87 1013.4
20260510015524 64 231 0.0 0.0 0.00 0.00 0.00 86 1013.4
20260510015020 64 231 0.0 0.0 0.00 0.00 0.00 85 1013.4
20260510014517 64 231 0.0 0.0 0.00 0.00 0.00 85 1013.1
20260510014014 64 231 0.0 0.0 0.00 0.00 0.00 85 1013.1
20260510013509 64 228 0.0 0.0 0.00 0.00 0.00 85 1012.9
20260510013005 64 231 0.0 0.0 0.00 0.00 0.00 85 1012.8
20260510012459 64 232 0.0 0.0 0.00 0.00 0.00 85 1013.0
20260510011954 65 228 0.0 0.0 0.00 0.00 0.00 85 1012.8
20260510011449 65 231 0.0 0.0 0.00 0.00 0.00 84 1012.5
20260510010946 65 227 0.0 0.0 0.00 0.00 0.00 84 1012.7
20260510010443 65 231 0.0 0.0 0.00 0.00 0.00 83 1012.4
20260510005940 66 231 0.0 0.0 0.00 0.00 0.00 82 1012.3
20260510005436 66 232 0.0 0.0 0.00 0.00 0.00 82 1012.2
20260510004933 66 228 0.0 0.0 0.00 0.00 0.00 82 1012.1
20260510004430 66 228 0.0 0.0 0.00 0.00 0.00 82 1012.1
20260510003929 67 231 0.0 0.0 0.00 0.00 0.00 81 1012.0
20260510003425 67 227 0.0 0.0 0.00 0.00 0.00 80 1012.0
20260510002924 68 229 0.0 0.0 0.00 0.00 0.00 81 1011.9
20260510002422 68 232 0.0 0.0 0.00 0.00 0.00 79 1011.9
20260510001918 68 229 0.0 0.0 0.00 0.00 0.00 78 1011.8
20260510001416 69 231 0.0 0.0 0.00 0.00 0.00 77 1011.8
20260510000913 69 231 0.0 0.0 0.00 0.00 0.00 78 1011.4
20260510000411 69 231 0.0 0.0 0.00 0.00 0.00 75 1011.6
20260509235905 70 231 0.0 0.0 0.00 0.00 0.00 74 1011.7
20260509235403 70 231 0.0 0.0 0.00 0.00 0.00 74 1011.4
20260509234858 70 229 0.0 0.0 0.00 0.00 0.00 73 1011.6
20260509234356 71 229 0.0 0.0 0.00 0.00 0.00 72 1011.6
20260509233854 71 229 0.0 0.0 0.00 0.00 0.00 72 1011.6
20260509233351 71 229 0.0 0.0 0.00 0.00 0.00 71 1011.5
20260509232846 71 233 0.0 0.0 0.00 0.00 0.00 72 1011.2
20260509232345 72 229 0.0 0.0 0.00 0.00 0.00 72 1011.4
20260509231840 72 229 0.0 0.0 0.00 0.00 0.00 70 1011.5
20260509231337 72 229 0.0 0.0 0.00 0.00 0.00 70 1011.2
20260509230836 72 229 0.0 0.0 0.00 0.00 0.00 69 1011.4
20260509230332 72 229 0.0 0.0 0.00 0.00 0.00 69 1011.3
20260509225827 73 229 0.0 0.0 0.00 0.00 0.00 69 1011.2
20260509225324 73 231 0.0 0.0 0.00 0.00 0.00 68 1011.0
20260509224820 73 233 0.0 0.0 0.00 0.00 0.00 68 1011.3
20260509224316 73 233 0.0 0.0 0.00 0.00 0.00 68 1011.1
20260509223813 73 226 0.0 0.0 0.00 0.00 0.00 68 1011.2
20260509223310 73 227 0.0 0.0 0.00 0.00 0.00 70 1011.4
20260509222807 74 228 0.0 0.0 0.00 0.00 0.00 70 1011.0
20260509222306 74 243 0.0 0.0 0.00 0.00 0.00 70 1011.0
20260509221758 74 233 0.0 0.0 0.00 0.00 0.00 70 1011.1
20260509221256 74 229 0.0 0.0 0.00 0.00 0.00 69 1010.8
20260509220751 74 227 0.0 0.0 0.00 0.00 0.00 71 1010.8
20260509220248 74 233 0.0 0.0 0.00 0.00 0.00 69 1011.0
20260509215743 74 229 0.0 0.0 0.00 0.00 0.00 70 1011.0
20260509215240 74 235 1.0 2.0 0.00 0.00 0.00 69 1010.7
20260509214737 75 221 0.0 1.0 0.00 0.00 0.00 68 1010.6